Regional Weather Roundup
Issued by NWS State College, PA

Home | Current Version | Previous Version | Graphics & Text | Print | Product List | Glossary On
Versions: 1 2 3 4 5 6 7 8 9 10 11 12 13 14 15 16 17 18 19 20 21 22 23 24 25 26 27 28 29 30 31 32 33 34 35 36 37 38 39 40 41 42 43 44 45 46 47 48 49 50
000
ASUS41 KCTP 241510
RWRCTP

REGIONAL WEATHER ROUNDUP
NATIONAL WEATHER SERVICE STATE COLLEGE PA
1100 AM EDT TUE APR 24 2018

Note: "fair" indicates few or no clouds below 12,000 feet with no
significant weather and/or obstructions to visibility.

* = STATION THAT DOES NOT REPORT PRECIPITATION /E.G. RAIN...SNOW...ETC/
    THUNDER OR FOG.

PAZ002>004-007>009-013>016-020>023-029>032-241600-
WESTERN PENNSYLVANIA

CITY           SKY/WX    TMP DP  RH WIND       PRES   REMARKS
ERIE           PTSUNNY   60  40  47 SE14G24   30.15F
MEADVILLE      CLOUDY    54  39  57 VRB6      30.16F
FRANKLIN*      CLOUDY    52  40  63 SE17      30.18F
NEW CASTLE     LGT RAIN  52  47  83 E9        30.16F
BEAVER COUNTY  LGT RAIN  48  45  87 E8        30.14F
BUTLER*        LGT RAIN  50  45  83 E9        30.16F
PITTSBURGH INT LGT RAIN  49  47  93 E8        30.13F
PITTSBURGH     LGT RAIN  49  47  93 E7        30.13F
INDIANA*       CLOUDY    50  46  87 E9        30.22F FOG
LATROBE        LGT RAIN  50  48  93 N8        30.15F
WASHINGTON CO* RAIN      50  47  89 E9        30.14F
$$

PAZ004>006-010>012-017>019-024>028-033>037-041-042-045-046-049>053-241600-
CENTRAL PENNSYLVANIA

CITY           SKY/WX    TMP DP  RH WIND       PRES   REMARKS
BRADFORD       CLOUDY    55  34  45 SE12      30.21F
DUBOIS         CLOUDY    51  40  65 SE13G21   30.20S
CLEARFIELD     CLOUDY    53  38  56 VRB5      30.23F
JOHNSTOWN      LGT RAIN  45  42  89 SE13      30.18F FOG
ALTOONA        LGT RAIN  52  41  66 SE7       30.24S
STATE COLLEGE  CLOUDY    54  37  54 SE9       30.26
WILLIAMSPORT   FAIR      59  33  37 CALM      30.28F
SELINSGROVE    FAIR      58  41  53 S6        30.29F
FT INDIANTOWN  CLOUDY    60  41  49 SE9G16    30.29F
CAPITAL CITY   FAIR      63  43  48 SE15      30.28F
HARRISBURG     FAIR      61  44  53 SE20      30.28F
YORK           FAIR      60  45  57 SE17      30.28S
$$

PAZ038>040-043-044-047-048-054-055-060>062-067>071-241600-
EASTERN PENNSYLVANIA

CITY           SKY/WX    TMP DP  RH WIND       PRES   REMARKS
SCRANTON       FAIR      61  33  35 S9        30.31F
MOUNT POCONO   FAIR      54  34  46 SE14G21   30.32F
ALLENTOWN      CLOUDY    63  39  41 SE10G20   30.34F
QUAKERTOWN*    MOSUNNY   61  41  48 SE10G17   30.34F
READING        FAIR      61  42  49 SE13G20   30.31F
LANCASTER      FAIR      61  45  55 SE20G26   30.30F
COATESVILLE    FAIR      59  43  55 SE13G21   30.32F
POTTSTOWN      FAIR      61  41  47 SE9G17    30.34F
BLUE BELL      PTSUNNY   61  43  51 SE13      30.35F
DOYLESTOWN     FAIR      61  42  49 S12       30.34F
WILLOW GROVE   NOT AVBL
NORTH PHILA    FAIR      64  43  46 SE15      30.36F
PHILADELPHIA   PTSUNNY   63  43  48 SE16G24   30.34F
$$



USA.gov is the U.S. government's official web portal to all federal, state and local government web resources and services.